SICH 1

Satellite information

Favourite Embed

Satellite Type and Status

PAYLOADIN ORBIT

Key statistics

Satellite SICH 1 at a glance.

Uptime

10847

Days in orbit

Revolutions

≈ 14.9

Per day

Orbit

LEO

Low Earth Orbit

Inclination

82.5

Latest

Satellite identification and parameters

Extended collection of information and parameters for SICH 1.

Object identification

Identified? True

Debris? False

Object name: SICH 1

International designator: 1995-046A

Object number (NORAD): 23657

Object ID (CCSDS): 23657

Country: UKRAINE (UKR)

Current information (Y/N): Y

RCS size: LARGE

Orbital parameters

Period: 96.455 minutes

Inclination: 82.5258 deg

SMA: 6966.956 km

Apoapsis: 601.324 km

Periapsis: 576.318 km

RAAN: 63.8831 deg

Eccentricy: 0.0017946

Argument of periapsis: 225.2941 deg

Mean anomaly: 134.6819 deg

Mean motion: 14.92925647 rev/day

Mean motion (dot): 0.00002068 rev/day2

B* drag term: 0.00019646 1/REarth

Two-line elements (TLE)

Creation date: May 12, 2025, 2:31 a.m.

Reference frame: TEME

Reference center: EARTH

Epoch: May 11, 2025, 9 p.m. UTC

TLE line 0: 0 SICH 1

TLE line 1: 1 23657U 95046A 25131.87562621 .00002068 00000-0 19646-3 0 9991

TLE line 2: 2 23657 82.5258 63.8831 0017946 225.2941 134.6819 14.92925647606076

Live tracking on map

Real-time ground track for satellite SICH 1.

In-orbit conjunctions

There are no conjunctions computed for SICH 1, at the moment. Check back to stay up to date, as we update our databases every day.

Go to all conjunctions

Associated space launch

Ocean observation satellite

SICH 1 was lifted into orbit during the mission ‘Tsiklon-3 | Okean-O1 8’, on board a Tsiklon-3 space rocket.

The launch took place on Aug. 31, 1995, 6:49 a.m. from 32/2.

For more information about the launch, click the button.

Launch to space Tsiklon-3 | Okean-O1 8
Tsiklon-3 | Okean-O1 8

Agency: N/A

Status: Launch Successful

Launch date: Aug. 31, 1995, 6:49 a.m. UTC

Rocket: Tsiklon-3

Launch pad: 32/2

Location: Plesetsk Cosmodrome, Russian Federation

...

Latest news about this satellite

There are no fresh news available about this satellite. Check back as we update our databases every day.


Newsletter sign-up

Weekly statistics, charts and insights to help you stay on top of the space industry.